| time (UTC) | temp F | wind direction | speed MPH | gust MPH | rain 1hr in | rain 24hr in | rain mn in | humidity % | barometer mb |
| 20260905152121 | 80 | 70 | 1.0 | 6.0 | 0.00 | 0.00 | 0.00 | 52 | 1010.6 |
| 20260905151122 | 80 | 10 | 0.0 | 8.0 | 0.00 | 0.00 | 0.00 | 54 | 1010.7 |
| 20260905150122 | 80 | 327 | 1.0 | 8.0 | 0.00 | 0.00 | 0.00 | 55 | 1010.5 |
| 20260905145121 | 80 | 336 | 0.0 | 4.0 | 0.00 | 0.00 | 0.00 | 55 | 1010.3 |
| 20260905144121 | 80 | 23 | 0.0 | 4.0 | 0.00 | 0.00 | 0.00 | 57 | 1010.2 |
| 20260905143121 | 79 | 5 | 2.0 | 4.0 | 0.00 | 0.00 | 0.00 | 56 | 1010.3 |
| 20260905142121 | 78 | 30 | 2.0 | 8.0 | 0.00 | 0.00 | 0.00 | 58 | 1010.4 |
| 20260905141121 | 78 | 300 | 0.0 | 3.0 | 0.00 | 0.00 | 0.00 | 60 | 1010.4 |
| 20260905140122 | 78 | 237 | 0.0 | 2.0 | 0.00 | 0.00 | 0.00 | 64 | 1010.4 |
| 20260905135121 | 77 | 276 | 2.0 | 7.0 | 0.00 | 0.00 | 0.00 | 62 | 1010.4 |
| 20260905134121 | 76 | 220 | 0.0 | 3.0 | 0.00 | 0.00 | 0.00 | 67 | 1010.3 |
| 20260905133121 | 75 | 158 | 0.0 | 4.0 | 0.00 | 0.00 | 0.00 | 70 | 1010.2 |
| 20260905132121 | 74 | 342 | 0.0 | 5.0 | 0.00 | 0.00 | 0.00 | 72 | 1010.1 |
| 20260905130121 | 72 | 282 | 0.0 | 2.0 | 0.00 | 0.00 | 0.00 | 75 | 1010.1 |
| 20260905125122 | 71 | 269 | 0.0 | 1.0 | 0.00 | 0.00 | 0.00 | 77 | 1010.1 |
| 20260905124121 | 71 | 270 | 0.0 | 0.0 | 0.00 | 0.00 | 0.00 | 78 | 1010.2 |
| 20260905014139 | 78 | 267 | 0.0 | 0.0 | 0.00 | 0.01 | 0.01 | 78 | 1010.0 |
| 20260905013139 | 78 | 267 | 0.0 | 0.0 | 0.00 | 0.01 | 0.01 | 77 | 1009.9 |
| 20260905012138 | 78 | 267 | 0.0 | 0.0 | 0.00 | 0.01 | 0.01 | 77 | 1009.9 |
| 20260905011139 | 78 | 267 | 0.0 | 0.0 | 0.00 | 0.01 | 0.01 | 77 | 1010.0 |
| 20260905005139 | 79 | 267 | 0.0 | 0.0 | 0.00 | 0.01 | 0.01 | 76 | 1010.0 |
| 20260905004138 | 79 | 267 | 0.0 | 0.0 | 0.00 | 0.01 | 0.01 | 76 | 1009.7 |
| 20260905003138 | 79 | 267 | 0.0 | 0.0 | 0.00 | 0.01 | 0.01 | 75 | 1009.8 |
| 20260905002138 | 79 | 267 | 0.0 | 0.0 | 0.00 | 0.01 | 0.01 | 74 | 1009.7 |
| 20260905001138 | 80 | 267 | 0.0 | 0.0 | 0.00 | 0.01 | 0.01 | 73 | 1009.6 |
| 20260905000138 | 80 | 267 | 0.0 | 0.0 | 0.00 | 0.01 | 0.01 | 73 | 1009.4 |
| 20260904235138 | 80 | 267 | 0.0 | 0.0 | 0.00 | 0.01 | 0.01 | 72 | 1009.3 |
| 20260904234138 | 81 | 267 | 0.0 | 0.0 | 0.00 | 0.01 | 0.01 | 72 | 1009.3 |
| 20260904233138 | 81 | 267 | 0.0 | 0.0 | 0.00 | 0.01 | 0.01 | 72 | 1009.3 |
| 20260904231138 | 81 | 268 | 0.0 | 0.0 | 0.00 | 0.01 | 0.01 | 71 | 1009.3 |
| 20260904230138 | 82 | 268 | 0.0 | 0.0 | 0.00 | 0.01 | 0.01 | 70 | 1009.4 |
| 20260904225138 | 82 | 268 | 0.0 | 0.0 | 0.00 | 0.01 | 0.01 | 70 | 1009.3 |
| 20260904224138 | 82 | 268 | 0.0 | 0.0 | 0.00 | 0.01 | 0.01 | 69 | 1009.4 |
| 20260904223139 | 82 | 266 | 0.0 | 0.0 | 0.00 | 0.01 | 0.01 | 68 | 1009.7 |
| 20260904222138 | 83 | 277 | 0.0 | 2.0 | 0.00 | 0.01 | 0.01 | 67 | 1009.7 |
| 20260904221138 | 83 | 265 | 0.0 | 2.0 | 0.00 | 0.01 | 0.01 | 66 | 1009.6 |
| 20260904220138 | 84 | 272 | 0.0 | 3.0 | 0.00 | 0.01 | 0.01 | 66 | 1009.7 |
| 20260904215138 | 84 | 279 | 0.0 | 3.0 | 0.00 | 0.01 | 0.01 | 65 | 1009.7 |
| 20260904214138 | 84 | 285 | 0.0 | 3.0 | 0.00 | 0.01 | 0.01 | 65 | 1009.6 |
| 20260904213137 | 85 | 286 | 0.0 | 2.0 | 0.00 | 0.01 | 0.01 | 64 | 1009.7 |
| 20260904212138 | 85 | 271 | 0.0 | 3.0 | 0.00 | 0.01 | 0.01 | 63 | 1009.7 |
| 20260904205138 | 85 | 279 | 0.0 | 3.0 | 0.00 | 0.01 | 0.01 | 63 | 1009.5 |
| 20260904204138 | 86 | 277 | 0.0 | 6.0 | 0.00 | 0.01 | 0.01 | 61 | 1009.6 |
| 20260904203138 | 86 | 267 | 0.0 | 4.0 | 0.00 | 0.01 | 0.01 | 61 | 1009.6 |
| 20260904202137 | 86 | 259 | 0.0 | 6.0 | 0.00 | 0.01 | 0.01 | 60 | 1009.6 |
| 20260904201138 | 86 | 277 | 2.0 | 10.0 | 0.00 | 0.01 | 0.01 | 62 | 1009.8 |
| 20260904200137 | 86 | 265 | 0.0 | 6.0 | 0.00 | 0.01 | 0.01 | 64 | 1009.9 |
| 20260904194137 | 86 | 255 | 1.0 | 6.0 | 0.00 | 0.01 | 0.01 | 61 | 1010.3 |
| 20260904192138 | 87 | 273 | 0.0 | 12.0 | 0.00 | 0.01 | 0.01 | 59 | 1010.5 |
| 20260904191138 | 87 | 264 | 0.0 | 9.0 | 0.00 | 0.01 | 0.01 | 58 | 1010.4 |
| 20260904190138 | 88 | 280 | 1.0 | 8.0 | 0.00 | 0.01 | 0.01 | 58 | 1010.7 |
| 20260904185138 | 87 | 213 | 2.0 | 4.0 | 0.00 | 0.01 | 0.01 | 60 | 1010.8 |
| 20260904184137 | 86 | 263 | 0.0 | 3.0 | 0.00 | 0.01 | 0.01 | 64 | 1010.8 |
| 20260904183137 | 85 | 283 | 0.0 | 3.0 | 0.00 | 0.01 | 0.01 | 64 | 1010.9 |
| 20260904182137 | 86 | 316 | 0.0 | 4.0 | 0.00 | 0.01 | 0.01 | 63 | 1011.0 |
| 20260904181137 | 86 | 271 | 0.0 | 2.0 | 0.00 | 0.01 | 0.01 | 62 | 1011.1 |
| 20260904180138 | 86 | 272 | 0.0 | 2.0 | 0.00 | 0.01 | 0.01 | 63 | 1011.1 |
| 20260904175137 | 87 | 281 | 2.0 | 7.0 | 0.00 | 0.01 | 0.01 | 61 | 1011.1 |
| 20260904174137 | 88 | 278 | 0.0 | 3.0 | 0.00 | 0.01 | 0.01 | 59 | 1011.1 |
| 20260904171137 | 88 | 276 | 0.0 | 7.0 | 0.00 | 0.01 | 0.01 | 60 | 1011.1 |
| 20260904170137 | 87 | 263 | 1.0 | 10.0 | 0.00 | 0.01 | 0.01 | 63 | 1011.2 |
| 20260904165137 | 86 | 277 | 3.0 | 7.0 | 0.00 | 0.01 | 0.01 | 63 | 1011.1 |
| 20260904163137 | 87 | 258 | 3.0 | 9.0 | 0.00 | 0.01 | 0.01 | 59 | 1011.2 |
| 20260904162137 | 87 | 273 | 1.0 | 6.0 | 0.00 | 0.01 | 0.01 | 60 | 1011.3 |
| 20260904160137 | 87 | 297 | 0.0 | 6.0 | 0.00 | 0.01 | 0.01 | 62 | 1011.4 |
| 20260904155137 | 86 | 333 | 2.0 | 5.0 | 0.00 | 0.01 | 0.01 | 63 | 1011.5 |
| 20260904154137 | 86 | 249 | 0.0 | 3.0 | 0.00 | 0.01 | 0.01 | 64 | 1011.5 |
| 20260904153137 | 85 | 310 | 0.0 | 10.0 | 0.00 | 0.01 | 0.01 | 65 | 1011.5 |
| 20260904152137 | 86 | 275 | 1.0 | 6.0 | 0.00 | 0.01 | 0.01 | 64 | 1011.7 |